Date String (YYYY-MM-DD hh:mm:ss) UTC,Instrument flags,absolute air pressure of the measurement (hPa),sample flow rate (lpm),inlet stack bypass flow (lpm),air temperature of the measurement (°C),ambient temperature measured by the external sensor (°C),aerosol sample conditioner tube jacket temperature (°C),OPC LED temperature (°C),internal box temperature (°C),relative humidity of the measurement (%),span deviation,mass concentration of particles derived from Lorenz-Mie calculation of OPC scattering (μg/m³),mass concentration of particles derived from Lorenz-Mie calculation of OPC scattering (μg/m³),mass concentration of particles derived from Lorenz-Mie calculation of OPC scattering (μg/m³)
DateTimeUTC,F1_M11,P_M11,Q1_M11,Q2_M11,T1_M11,T2_M11,T3_M11,T4_M11,T5_M11,U1_M11,ZSPAN_M11,X2_M11,X0_M11,X1_M11
2024-03-28 13:00:00,SystemResetWarning,0826.1,4.99,000.00,018.4,017.7,000.0,027.0,020.1,12.9,0000.0,0002.19,0005.80,0001.45
2024-03-28 13:01:00,SystemResetWarning,0826.1,4.99,000.00,018.4,017.7,000.0,027.0,020.1,12.9,0000.0,0002.19,0005.73,0001.45
2024-03-28 13:02:00,SystemResetWarning,0826.0,5.00,000.00,018.4,017.7,000.0,027.0,020.1,12.9,0000.0,0002.15,0005.58,0001.44
2024-03-28 13:03:00,SystemResetWarning,0826.1,5.01,000.00,018.4,017.7,000.0,026.9,020.1,13.0,0000.0,0002.09,0005.43,0001.44
2024-03-28 13:04:00,SystemResetWarning,0826.1,5.01,000.00,018.4,017.7,000.0,026.9,020.1,13.3,0000.0,0002.05,0005.21,0001.44
2024-03-28 13:05:00,SystemResetWarning,0826.2,4.99,000.00,018.4,017.7,000.0,026.9,020.0,13.5,0000.0,0002.07,0004.76,0001.45
2024-03-28 13:06:00,SystemResetWarning,0826.2,4.99,000.00,018.3,017.7,000.0,026.9,020.0,13.5,0000.0,0002.04,0004.74,0001.44
2024-03-28 13:07:00,SystemResetWarning,0826.2,5.00,000.00,018.3,017.7,000.0,026.9,020.0,13.4,0000.0,0001.99,0004.60,0001.44
2024-03-28 13:08:00,SystemResetWarning,0826.2,5.00,000.00,018.3,017.7,000.0,026.9,020.0,13.4,0000.0,0001.92,0003.88,0001.43
2024-03-28 13:09:00,SystemResetWarning,0826.2,5.00,000.00,018.3,017.6,000.0,026.9,020.0,13.4,0000.0,0001.92,0004.22,0001.43
2024-03-28 13:10:00,SystemResetWarning,0826.2,5.00,000.00,018.3,017.6,000.0,026.9,020.0,13.4,0000.0,0001.96,0004.30,0001.44
2024-03-28 13:11:00,SystemResetWarning,0826.2,5.00,000.00,018.3,017.6,000.0,026.9,020.0,13.4,0000.0,0001.94,0004.20,0001.44
2024-03-28 13:12:00,SystemResetWarning,0826.2,5.00,000.00,018.3,017.6,000.0,026.9,020.0,13.4,0000.0,0001.90,0004.10,0001.45
2024-03-28 13:13:00,SystemResetWarning,0826.2,5.00,000.00,018.3,017.6,000.0,026.9,020.0,13.4,0000.0,0001.92,0004.17,0001.45
2024-03-28 13:14:00,SystemResetWarning,0826.2,5.01,000.00,018.3,017.6,000.0,026.9,020.0,13.4,0000.0,0001.90,0004.13,0001.44
2024-03-28 13:15:00,SystemResetWarning,0826.2,5.00,000.00,018.3,017.6,000.0,026.9,020.0,13.4,0000.0,0001.93,0004.21,0001.43
2024-03-28 13:16:00,SystemResetWarning,0826.2,5.00,000.00,018.3,017.6,000.0,026.9,020.0,13.5,0000.0,0001.93,0004.26,0001.42
2024-03-28 13:17:00,SystemResetWarning,0826.2,5.01,000.00,018.3,017.6,000.0,026.9,020.0,13.6,0000.0,0001.94,0004.25,0001.40
2024-03-28 13:18:00,SystemResetWarning,0826.2,5.01,000.00,018.3,017.6,000.0,026.9,020.0,13.5,0000.0,0001.97,0004.34,0001.40
2024-03-28 13:19:00,SystemResetWarning,0826.2,4.99,000.00,018.3,017.6,000.0,026.9,020.0,13.5,0000.0,0002.05,0004.37,0001.42
2024-03-28 13:20:00,SystemResetWarning,0826.2,4.99,000.00,018.3,017.6,000.0,026.9,020.0,13.5,0000.0,0002.10,0003.61,0001.42
2024-03-28 13:21:00,SystemResetWarning,0826.2,4.99,000.00,018.3,017.6,000.0,026.9,020.0,13.5,0000.0,0002.04,0003.35,0001.41
2024-03-28 13:22:00,SystemResetWarning,0826.2,5.00,000.00,018.3,017.6,000.0,026.9,020.0,13.5,0000.0,0002.06,0003.42,0001.41
2024-03-28 13:23:00,SystemResetWarning,0826.3,4.99,000.00,018.3,017.6,000.0,026.9,020.0,13.5,0000.0,0002.10,0003.51,0001.41
2024-03-28 13:24:00,SystemResetWarning,0826.2,5.01,000.00,018.3,017.6,000.0,026.9,020.0,13.5,0000.0,0002.10,0003.60,0001.41
2024-03-28 13:25:00,SystemResetWarning,0826.3,5.01,000.00,018.3,017.6,000.0,026.9,020.0,13.5,0000.0,0002.13,0003.75,0001.42
2024-03-28 13:26:00,SystemResetWarning,0826.3,4.99,000.00,018.3,017.5,000.0,026.9,020.0,13.4,0000.0,0002.11,0003.65,0001.43
2024-03-28 13:27:00,SystemResetWarning,0826.2,4.99,000.00,018.3,017.5,000.0,026.9,020.0,13.4,0000.0,0002.14,0003.63,0001.45
2024-03-28 13:28:00,SystemResetWarning,0826.2,5.00,000.00,018.3,017.5,000.0,026.9,020.0,13.4,0000.0,0002.13,0003.58,0001.47
2024-03-28 13:29:00,SystemResetWarning,0826.2,5.00,000.00,018.3,017.5,000.0,026.9,020.0,13.4,0000.0,0002.10,0003.41,0001.47
2024-03-28 13:30:00,SystemResetWarning,0826.2,5.00,000.00,018.3,017.5,000.0,026.9,020.0,13.4,0000.0,0002.09,0003.37,0001.47
2024-03-28 13:31:00,SystemResetWarning,0826.1,5.00,000.00,018.2,017.6,000.0,026.9,020.0,13.6,0000.0,0002.08,0003.33,0001.47
2024-03-28 13:32:00,SystemResetWarning,0826.1,5.00,000.00,018.2,017.5,000.0,026.9,020.0,13.5,0000.0,0002.04,0003.27,0001.46
2024-03-28 13:33:00,SystemResetWarning,0826.1,4.99,000.00,018.2,017.5,000.0,026.9,020.0,13.4,0000.0,0002.07,0003.36,0001.48
2024-03-28 13:34:00,SystemResetWarning,0826.2,5.01,000.00,018.2,017.5,000.0,026.9,020.0,13.6,0000.0,0002.08,0003.37,0001.48
2024-03-28 13:35:00,SystemResetWarning,0826.2,5.01,000.00,018.2,017.5,000.0,026.9,020.0,13.5,0000.0,0002.09,0003.43,0001.48
2024-03-28 13:36:00,SystemResetWarning,0826.2,4.99,000.00,018.2,017.5,000.0,026.9,020.0,13.5,0000.0,0002.09,0003.38,0001.47
2024-03-28 13:37:00,SystemResetWarning,0826.2,5.00,000.00,018.2,017.5,000.0,026.9,020.0,13.5,0000.0,0002.09,0003.36,0001.46
2024-03-28 13:38:00,SystemResetWarning,0826.2,4.99,000.00,018.2,017.5,000.0,026.9,020.0,13.5,0000.0,0002.06,0003.32,0001.47
2024-03-28 13:39:00,SystemResetWarning,0826.2,5.00,000.00,018.2,017.5,000.0,026.9,020.0,13.4,0000.0,0002.04,0003.30,0001.45
2024-03-28 13:40:00,SystemResetWarning,0826.2,5.00,000.00,018.2,017.5,000.0,026.9,020.0,13.1,0000.0,0002.03,0003.29,0001.45
2024-03-28 13:41:00,SystemResetWarning,0826.2,5.00,000.00,018.2,017.6,000.0,027.0,020.1,12.8,0000.0,0002.03,0004.27,0001.44
2024-03-28 13:42:00,SystemResetWarning,0826.1,5.02,000.00,018.4,018.3,000.0,027.0,020.5,12.9,0000.0,0001.98,0004.90,0001.44
2024-03-28 13:43:00,SystemResetWarning,0826.2,4.99,000.00,018.6,018.9,000.0,027.1,020.9,12.7,0000.0,0002.00,0004.91,0001.44
2024-03-28 13:44:00,SystemResetWarning,0826.2,4.99,000.00,018.7,018.8,000.0,027.0,020.8,12.6,0000.0,0002.00,0004.91,0001.43
2024-03-28 13:45:00,SystemResetWarning,0826.2,5.00,000.00,018.7,018.6,000.0,027.0,020.6,12.6,0000.0,0001.98,0004.89,0001.43
2024-03-28 13:46:00,SystemResetWarning,0826.2,5.00,000.00,018.6,018.4,000.0,027.0,020.5,12.7,0000.0,0002.02,0005.64,0001.43
2024-03-28 13:47:00,SystemResetWarning,0826.2,5.00,000.00,018.6,018.3,000.0,027.0,020.4,12.9,0000.0,0002.03,0005.86,0001.42
2024-03-28 13:48:00,SystemResetWarning,0826.2,5.01,000.00,018.6,018.1,000.0,027.0,020.3,12.7,0000.0,0002.05,0006.43,0001.42
2024-03-28 13:49:00,SystemResetWarning,0826.2,5.01,000.00,018.6,018.1,000.0,027.0,020.3,12.7,0000.0,0002.06,0006.52,0001.40
2024-03-28 13:50:00,SystemResetWarning,0826.2,5.01,000.00,018.5,018.0,000.0,027.0,020.3,12.7,0000.0,0002.05,0006.53,0001.40
2024-03-28 13:51:00,SystemResetWarning,0826.2,5.00,000.00,018.5,018.0,000.0,027.0,020.2,13.0,0000.0,0002.10,0007.03,0001.41
2024-03-28 13:52:00,SystemResetWarning,0826.2,5.00,000.00,018.5,017.9,000.0,027.0,020.2,13.8,0000.0,0002.13,0006.53,0001.40
2024-03-28 13:53:00,SystemResetWarning,0826.2,4.99,000.00,018.5,017.9,000.0,027.0,020.2,14.0,0000.0,0002.16,0005.49,0001.39
2024-03-28 13:54:00,SystemResetWarning,0826.2,5.00,000.00,018.5,017.9,000.0,027.0,020.2,14.2,0000.0,0002.18,0005.55,0001.39
2024-03-28 13:55:00,SystemResetWarning,0826.3,5.01,000.00,018.5,017.9,000.0,027.0,020.2,13.3,0000.0,0002.15,0005.47,0001.39
2024-03-28 13:56:00,SystemResetWarning,0826.2,5.00,000.00,018.5,017.8,000.0,027.0,020.2,13.2,0000.0,0002.15,0005.51,0001.38
2024-03-28 13:57:00,SystemResetWarning,0826.2,4.99,000.00,018.5,017.8,000.0,027.0,020.2,14.1,0000.0,0002.08,0004.61,0001.38
2024-03-28 13:58:00,SystemResetWarning,0826.1,5.00,000.00,018.4,017.8,000.0,027.0,020.1,13.6,0000.0,0002.03,0004.23,0001.37
2024-03-28 13:59:00,SystemResetWarning,0825.9,5.01,000.00,018.4,017.8,000.0,027.0,020.1,12.9,0000.0,0001.99,0003.73,0001.37
